Погода в Джексонвилл Бич

США     30°17′02″N   81°23′46″W
темп.,
°C
ветер,
м/с
пор.,
м/с
влажн.,
%
обл.,
%
осадки,
мм/ч
давл.,
гПа
погр.,
м
8 марта, пн
пн801:00+11ссв49411 0.0 1030796
04:00+10св39420 0.0 1030843
07:00+10св39460 0.0 1031776
10:00+15св58360 0.0 10341312
13:00+16св57350 0.0 10331282
16:00+16св46370 0.0 10321053
19:00+12св37490 0.0 1033525
22:00+11св26580 0.0 1034326
9 марта, вт
вт901:00+11св24640 0.0 1034130
04:00+10ссв24620 0.0 1033116
07:00+10ссв25640 0.0 1034145
10:00+17всв45440 0.0 10351030
13:00+19всв45410 0.0 10341148
16:00+19всв45450 0.0 1031927
19:00+14св366033 0.0 1032277
22:00+13св267036 0.0 1033220
10 марта, ср
ср1001:00+13св237819 0.0 103293
04:00+13св22801 0.0 103152
07:00+13св23791 0.0 103277
10:00+19в46480 0.0 10321339
13:00+21вюв464321 0.0 10311380
16:00+20в46469 0.0 10291288
19:00+17в366522 0.0 1029606
22:00+16в267161 0.0 1030254
11 марта, чт
чт1101:00+15в257831 0.0 1029171
04:00+14в138267 0.0 102874
07:00+14всв128233 0.0 102923
10:00+21вюв47538 0.0 10301247
13:00+22в56488 0.0 10281270
16:00+21в46520 0.0 10271175
19:00+18в366911 0.0 1027535
22:00+16вюв25772 0.0 1028238
12 марта, пт
пт1201:00+15вюв24831 0.0 1027119
04:00+15в118535 0.0 102725
07:00+15в228026 0.0 102753
10:00+21вюв35530 0.0 10281138
13:00+23вюв45460 0.0 10271192
16:00+22вюв45520 0.0 1025985
19:00+18вюв36670 0.0 1025366
22:00+17вюв27757 0.0 1026293